Theta_e
332 333 333 334 335 336 337 338 339 340 341 342 343 337 338 343 337 338 340 343 342 340 339 339 338 338 338 337 335 336 335 338 337 338 337 336 338 335 338 337 339 339 340 341 340 339 340 339 338 337 338 336 336 332 337 337 334 335 338 338 336 336 336 339 338 338 334 331 334 334 335 335 334 334 335 335 335 336 337 336 336 336 337 338 339
332 332 332 333 334 335 336 338 339 338 339 340 339 338 338 340 340 340 341 342 342 342 341 339 339 337 336 334 334 334 333 333 333 336 337 337 338 337 337 337 338 338 338 341 342 340 339 338 338 337 337 338 338 337 338 337 337 336 337 335 336 335 335 336 337 336 331 328 326 327 329 332 333 334 331 330 332 333 334 334 336 335 334 337 338
331 331 332 333 334 335 335 337 338 339 339 338 340 340 339 337 335 340 341 342 343 343 341 339 339 340 338 336 334 332 335 336 334 335 337 335 338 337 337 338 336 336 337 339 340 338 339 339 338 339 338 338 337 336 337 336 337 336 336 334 333 335 333 336 337 334 328 331 331 325 320 321 327 330 332 330 331 333 334 333 332 331 330 333 335
328 330 331 333 334 335 335 336 338 338 337 338 339 338 339 336 340 339 342 343 343 342 340 341 341 342 342 340 339 336 335 338 338 338 335 334 334 336 336 337 336 335 334 334 335 338 340 340 341 340 339 338 337 335 335 334 335 336 335 334 335 330 329 330 335 337 334 330 324 321 323 321 314 321 326 328 331 331 332 331 331 330 331 332 333
329 330 331 333 333 334 335 337 338 337 337 337 338 338 338 341 342 343 343 343 342 341 341 341 340 340 341 341 340 338 337 335 333 331 332 330 329 332 333 336 335 334 334 334 333 334 335 337 337 337 338 339 339 337 335 334 334 334 335 334 333 331 329 329 331 334 336 336 330 324 322 318 315 322 325 325 331 328 329 330 330 330 330 330 330
330 330 332 333 334 335 335 337 336 336 337 338 339 339 340 340 341 343 343 342 341 342 341 340 339 337 334 331 330 330 329 330 329 328 328 329 325 327 329 334 334 334 333 332 332 333 334 334 335 333 334 335 336 337 336 335 335 333 334 334 330 334 333 329 328 332 334 336 335 335 328 320 321 323 323 317 328 330 327 326 327 327 327 326 326
330 331 332 333 334 334 335 336 337 338 337 339 340 341 343 342 343 343 343 341 342 341 341 341 339 338 336 334 332 330 328 330 332 331 330 327 328 328 329 333 333 333 333 332 332 333 333 334 335 334 333 334 334 334 333 335 333 334 335 334 332 332 334 330 327 329 332 333 333 334 334 331 330 323 321 321 318 321 324 323 322 323 324 323 322
329 330 331 333 335 335 335 336 338 338 339 339 339 340 341 342 343 343 343 342 343 342 341 341 339 337 336 335 332 330 330 331 332 332 332 329 327 327 329 330 333 332 332 331 332 331 332 332 333 334 332 332 331 331 332 333 334 336 336 335 333 332 331 328 328 331 328 329 333 332 330 331 331 329 328 322 319 315 315 320 322 323 323 322 322
331 330 331 332 333 335 336 337 339 340 340 340 340 342 343 343 343 343 343 343 342 343 341 341 339 338 336 334 332 332 332 331 331 330 328 329 327 328 329 328 331 333 331 331 331 330 330 330 332 332 332 332 331 331 333 335 337 337 336 334 332 331 332 330 328 328 330 329 330 331 331 328 328 329 329 327 319 316 313 314 315 320 322 321 321
332 332 333 334 335 336 338 339 340 339 340 341 341 342 342 342 341 342 341 341 341 342 341 340 340 338 335 334 333 331 331 330 329 327 327 328 326 328 328 328 328 329 331 331 331 329 330 330 329 332 332 331 329 331 333 334 336 336 337 336 334 332 332 332 330 329 331 333 332 331 328 328 328 327 326 325 323 322 315 313 315 316 314 316 321
330 331 333 335 337 338 338 338 339 340 340 339 340 340 340 340 340 339 340 339 340 340 340 341 340 338 335 335 333 333 331 330 327 327 326 326 325 326 326 325 328 327 328 330 330 329 329 329 330 332 333 332 329 328 329 328 331 332 334 335 336 335 333 334 332 331 330 329 329 328 328 327 326 324 324 325 324 321 316 315 317 316 315 314 317
329 330 331 334 335 336 337 337 337 338 338 337 337 337 337 337 338 337 336 337 337 337 340 339 338 338 338 336 333 334 333 330 327 326 325 324 324 324 324 324 325 326 327 327 328 328 328 327 330 330 330 331 329 328 328 328 329 330 331 331 333 334 335 334 334 332 331 330 330 330 329 330 329 327 327 326 323 321 319 317 315 315 314 313 314
328 329 330 332 333 333 334 335 333 330 327 327 328 329 330 331 332 331 332 336 337 338 338 338 337 337 336 335 334 334 332 330 328 326 326 324 324 323 323 323 323 323 325 326 326 327 326 327 328 327 328 329 329 327 328 328 327 327 328 330 330 331 331 333 332 333 333 330 330 330 326 327 326 326 326 324 323 322 320 316 316 316 312 312 313
327 328 328 330 332 331 332 332 328 325 322 322 323 323 324 325 325 325 326 331 334 335 335 335 335 335 336 335 334 333 332 331 328 326 326 324 324 323 324 322 322 324 325 326 325 325 326 328 330 329 329 329 329 329 328 327 327 324 326 326 327 329 331 333 332 331 330 328 327 324 324 324 323 323 323 323 322 320 317 316 315 314 314 311 312
326 327 327 328 330 330 329 329 329 328 328 325 324 323 321 319 321 321 321 323 327 331 331 331 331 334 334 333 333 333 331 330 328 327 327 325 325 324 324 324 323 324 324 325 325 325 327 328 328 328 328 328 328 328 326 326 326 324 324 325 325 326 326 326 326 327 325 324 324 321 320 318 316 316 316 316 315 317 317 316 313 311 311 311 310
324 324 326 328 330 329 329 331 330 330 330 328 325 322 320 320 321 321 320 321 322 326 328 330 330 331 333 334 334 333 331 330 328 326 326 326 326 324 323 324 323 324 325 324 325 325 326 325 325 324 324 324 325 325 325 324 325 324 321 323 322 323 324 324 323 324 324 323 321 319 316 315 316 315 316 315 314 317 317 315 315 314 310 307 310
323 324 324 326 327 328 329 330 329 328 329 327 324 322 321 321 319 319 320 322 323 325 327 330 333 332 332 333 333 333 331 329 328 329 328 328 327 324 323 323 325 324 324 325 325 325 324 323 322 322 321 321 322 322 323 323 324 322 321 320 321 322 321 320 320 320 320 319 320 319 316 317 318 319 317 317 317 317 316 316 316 314 315 310 308
322 323 325 325 326 326 325 326 327 327 328 327 325 324 322 321 321 321 322 323 324 324 327 328 329 330 331 331 333 333 331 330 330 330 328 327 326 325 324 322 323 324 324 325 325 324 323 322 322 321 321 319 319 319 319 320 322 319 320 320 319 319 318 318 318 318 319 319 318 318 318 317 320 320 319 321 320 319 316 316 314 315 315 312 311
320 321 321 320 321 321 323 323 322 325 328 329 327 326 323 322 323 323 323 323 326 326 326 328 329 331 331 332 332 331 331 331 331 329 327 327 325 324 322 321 324 324 323 324 324 322 322 322 321 321 320 319 318 318 319 319 318 317 317 316 318 317 316 317 319 319 319 320 320 319 320 319 321 321 321 321 321 319 317 317 316 317 317 317 314
319 320 319 320 321 322 323 323 322 323 324 326 327 327 324 323 323 322 324 325 326 328 328 328 329 330 330 331 331 329 330 331 330 329 328 326 324 324 322 323 324 323 323 323 322 321 321 321 320 320 320 319 318 318 318 318 319 318 317 315 316 316 315 315 315 317 317 319 319 318 318 318 318 318 319 320 319 320 319 316 317 317 317 318 316
319 319 320 321 322 323 324 325 324 323 323 324 325 325 326 325 323 323 325 328 328 329 329 329 330 330 331 330 330 330 331 330 329 330 328 328 324 324 324 324 322 323 323 322 321 321 319 320 319 319 319 321 319 319 319 319 318 318 317 317 317 316 315 315 317 318 317 318 316 316 317 318 319 318 318 318 317 317 318 318 318 316 315 317 316
319 319 319 320 320 320 321 324 325 325 324 324 325 325 326 326 326 326 327 327 328 329 330 330 331 331 331 331 331 331 330 330 330 330 330 328 325 325 326 324 323 324 323 320 320 322 321 321 320 319 321 321 320 319 320 319 317 317 318 319 318 316 315 315 316 315 317 317 318 316 314 316 317 316 317 314 315 314 315 315 315 315 313 314 316
318 318 319 319 321 321 321 322 323 322 322 323 325 325 325 326 326 327 327 327 328 328 329 330 329 329 330 330 330 330 330 331 330 328 329 327 326 326 326 324 323 324 324 322 321 322 320 320 320 320 320 321 320 320 321 320 319 318 316 318 318 317 316 316 316 314 313 315 316 316 315 317 318 317 317 316 316 314 315 314 315 314 313 313 313
316 317 318 318 319 321 321 322 321 321 321 321 323 325 325 324 324 324 326 326 327 327 328 328 329 329 329 329 329 329 329 329 329 329 329 328 326 325 325 325 324 323 321 324 323 321 320 319 319 319 320 320 320 321 320 319 319 320 320 318 318 318 317 316 315 314 313 314 316 316 316 316 317 316 315 315 316 315 316 315 315 315 314 312 315
314 315 315 316 316 316 318 319 320 320 321 323 322 322 323 323 324 324 325 326 326 327 326 326 327 328 328 328 328 328 328 328 327 327 328 328 327 325 325 325 325 324 322 323 322 322 321 320 320 318 318 319 319 319 319 320 320 321 320 319 319 318 319 318 318 317 316 316 316 317 316 316 316 317 316 315 315 316 315 316 315 314 313 314 314
313 313 313 313 314 315 315 316 318 319 319 321 322 322 322 323 324 326 325 326 326 327 326 326 327 327 327 327 328 328 327 328 327 327 327 328 328 327 325 325 325 324 324 323 322 322 321 321 320 319 319 320 320 320 319 319 319 320 321 321 320 320 319 319 319 319 318 318 319 317 318 317 316 317 316 316 317 316 315 315 314 314 313 314 314
310 311 311 312 313 313 314 314 314 317 318 319 320 321 322 323 324 325 325 326 327 327 327 327 327 327 327 327 327 327 327 327 327 327 327 327 327 327 326 325 325 326 326 325 324 323 323 323 321 321 321 321 322 321 322 321 320 321 321 321 321 321 321 321 320 319 319 320 319 318 319 319 317 316 317 316 317 317 316 315 315 315 313 314 314
309 309 309 309 310 311 313 313 313 313 315 317 318 319 320 321 321 323 324 325 325 326 326 326 325 326 327 327 328 327 327 327 327 327 327 327 327 327 326 326 325 325 325 325 324 323 324 324 324 324 324 324 324 323 323 324 324 325 325 325 325 324 323 323 323 322 322 321 321 320 320 320 318 317 319 318 317 316 316 316 316 315 314 313 313
306 307 308 308 309 309 310 311 311 312 312 313 315 316 318 318 319 322 323 323 325 325 325 325 325 326 326 327 327 327 327 327 326 326 326 325 325 326 326 325 326 326 326 325 325 325 324 324 325 325 325 326 325 325 325 324 324 324 326 326 326 325 325 325 325 325 325 324 324 323 322 322 321 319 313 313 311 310 317 315 316 315 313 312 313
304 305 306 307 307 308 309 310 310 310 310 311 311 312 313 314 316 317 320 321 323 323 323 323 323 325 325 326 326 326 325 326 326 327 325 325 325 325 326 326 326 326 327 326 326 326 325 325 325 325 326 326 326 327 321 310 313 323 325 325 326 325 324 325 325 325 325 326 325 325 325 318 314 310 308 303 302 301 305 312 316 314 312 312 313
302 303 303 304 305 306 307 307 308 309 310 309 310 310 311 311 311 313 314 318 321 321 322 322 322 323 323 324 324 324 324 324 325 325 324 324 324 325 326 327 326 326 327 327 327 326 326 326 325 325 325 324 324 324 304 301 302 305 319 324 324 324 325 325 324 325 324 323 325 325 326 319 315 311 312 300 299 299 298 297 298 298 303 317 313
300 301 302 302 302 303 303 304 306 307 308 309 309 309 310 309 311 310 311 312 314 316 318 320 321 322 323 323 323 324 324 324 324 324 324 324 325 325 325 325 326 326 327 328 326 325 325 325 325 325 324 324 325 309 299 299 298 298 308 322 324 324 323 323 324 324 323 323 323 323 326 326 324 321 320 316 304 297 296 295 294 294 292 290 293
298 298 299 300 300 301 302 303 303 304 304 306 308 309 309 310 310 311 311 311 311 312 312 314 316 318 320 322 322 323 324 324 324 324 324 324 323 324 325 325 325 326 326 324 324 324 323 325 325 323 324 325 325 302 299 297 297 297 298 311 322 322 322 324 323 323 322 321 322 325 325 325 322 314 316 319 316 307 295 292 293 293 293 292 290
297 299 298 299 300 301 301 302 302 302 303 305 306 306 307 310 310 310 311 312 311 311 312 311 312 313 313 315 319 320 321 322 324 324 324 323 323 322 324 325 324 324 324 324 324 323 323 323 324 324 323 323 323 303 298 297 296 295 295 305 323 321 323 324 324 322 321 323 324 322 322 322 322 318 317 319 316 311 306 304 304 305 305 300 292
295 296 297 298 299 299 300 301 302 302 303 303 302 304 306 306 308 308 309 310 311 311 312 312 312 312 313 313 313 314 316 319 321 321 323 324 324 324 324 324 324 324 324 323 323 323 324 325 325 325 323 322 321 298 297 296 295 293 292 304 323 322 321 320 321 323 322 322 322 322 322 320 320 319 319 316 314 310 308 308 307 307 308 308 310
296 296 298 300 300 301 299 301 303 301 301 302 302 303 303 303 305 306 307 308 309 310 310 311 311 311 311 312 312 312 314 316 318 320 321 321 322 323 323 324 324 325 325 325 325 325 325 325 325 324 323 321 323 294 295 294 294 292 295 319 322 320 319 319 320 321 322 322 321 322 321 320 319 317 302 299 304 310 310 309 308 309 310 309 303
298 298 299 300 301 301 302 303 303 301 301 302 302 303 304 303 303 303 304 305 307 308 308 309 309 310 310 311 312 312 312 313 315 317 318 319 321 322 322 323 323 323 323 323 323 324 325 325 324 323 322 322 320 299 292 293 292 291 302 318 319 319 318 318 318 319 318 318 318 318 319 317 314 312 298 295 297 301 311 310 309 309 308 307 303
298 298 299 300 300 300 301 301 301 301 301 302 302 303 303 303 303 303 302 303 304 305 305 306 307 308 309 310 310 310 311 312 313 313 316 319 320 320 321 322 320 320 321 322 323 322 323 324 323 322 321 322 319 302 291 292 292 292 306 319 317 317 317 317 316 316 315 312 307 299 309 314 310 307 292 295 295 304 311 310 309 308 307 307 306
297 297 297 298 299 299 299 300 300 299 300 301 301 302 301 301 302 302 302 302 303 303 304 304 305 306 307 308 309 310 310 311 311 313 316 317 318 319 319 320 320 321 322 324 322 322 322 321 321 321 315 319 319 303 291 292 293 293 308 320 317 316 315 315 314 312 312 310 308 303 296 304 306 300 291 294 293 301 312 310 310 308 306 306 306
297 297 297 297 298 298 298 298 298 298 299 299 300 299 300 300 301 302 301 302 303 304 304 304 305 306 307 308 309 309 309 310 310 312 313 315 317 318 318 317 318 317 318 320 320 321 321 320 320 320 319 321 319 315 303 292 294 295 298 319 317 314 313 313 313 311 310 309 307 305 298 290 290 289 290 290 291 292 309 310 309 308 308 306 306
295 295 295 296 296 296 296 297 297 297 298 298 298 298 298 299 300 300 300 302 303 304 304 304 304 305 305 306 307 308 309 309 310 310 311 312 315 316 316 315 315 315 316 317 319 321 320 318 317 319 319 321 320 316 306 292 294 295 295 300 316 314 314 312 311 310 309 308 307 305 302 291 289 289 290 290 291 291 295 310 309 308 304 301 300
296 295 295 295 295 296 296 297 297 297 297 297 297 297 297 298 298 298 300 302 303 303 304 303 304 304 304 305 306 307 309 310 310 311 311 311 313 314 316 315 314 314 317 318 318 317 317 316 316 317 319 317 312 308 311 294 292 294 295 293 311 315 314 312 311 310 309 308 306 304 302 293 289 289 290 290 290 292 293 302 298 289 288 290 302
294 295 294 294 294 295 295 296 296 297 297 297 297 296 296 297 297 298 300 300 301 302 302 302 303 303 304 304 305 306 307 309 309 310 310 310 311 313 314 314 314 314 315 315 316 315 314 314 315 315 316 315 314 309 301 304 292 293 293 295 298 308 298 313 311 310 309 307 306 303 297 289 289 289 290 290 291 291 293 295 288 288 289 287 292
294 294 294 294 294 294 295 296 296 297 297 297 296 295 295 295 296 299 299 299 299 300 300 300 301 302 303 303 304 305 306 307 308 309 309 310 310 311 312 313 312 312 311 312 313 314 311 310 310 312 313 313 314 311 298 297 298 291 292 293 294 296 298 311 313 311 309 306 304 302 296 289 289 289 288 289 289 291 293 287 288 287 287 289 299
294 294 294 294 293 294 294 295 296 296 296 296 296 295 295 295 297 298 297 297 298 298 298 298 299 300 302 303 304 304 305 305 306 307 307 307 309 310 310 312 312 311 309 310 311 311 309 309 308 309 310 310 312 311 307 296 291 290 290 291 291 292 293 297 310 309 309 306 295 289 287 288 288 288 287 288 289 288 287 287 287 287 289 299 300
294 294 294 293 294 294 294 294 295 296 296 296 296 296 295 295 297 297 297 297 297 297 297 297 298 299 300 301 302 302 303 304 305 305 307 307 307 309 308 309 310 310 310 310 309 307 306 307 306 307 308 310 310 309 306 302 296 294 293 289 290 291 291 291 296 297 289 288 288 288 287 287 288 291 297 298 297 294 288 288 287 288 300 299 299
293 293 293 293 293 293 293 294 294 296 296 296 297 297 297 298 297 298 298 297 296 296 295 296 297 298 299 300 300 301 301 302 304 304 305 306 306 307 309 308 309 309 310 310 309 307 305 305 305 306 307 308 309 309 307 305 304 303 300 297 298 296 291 292 297 296 293 294 292 293 293 291 291 289 291 291 292 290 291 293 297 298 300 298 299
294 294 293 293 293 293 293 293 294 296 297 297 297 297 297 298 298 298 297 297 296 296 295 295 296 296 297 298 299 293 297 301 302 303 302 303 306 307 306 308 308 308 308 307 305 304 305 307 306 305 305 305 306 307 306 305 304 303 300 300 301 301 303 303 300 300 299 297 296 291 291 296 296 297 296 298 298 299 298 297 299 298 298 296 293
293 293 293 293 293 293 294 294 295 297 297 297 297 297 297 298 297 297 296 295 294 294 294 295 296 296 296 297 297 299 299 300 301 302 302 302 304 306 305 308 310 311 310 308 307 306 307 305 303 307 306 305 306 305 305 298 302 296 300 304 302 302 304 303 298 294 299 298 297 297 296 296 296 294 295 295 298 297 295 297 298 299 298 298 297
293 293 293 293 294 295 295 295 295 296 296 296 296 297 298 297 297 297 296 295 294 294 293 294 295 295 296 296 297 297 299 299 300 300 301 304 290 288 299 308 309 295 292 299 299 306 307 307 304 304 308 309 305 306 296 294 294 293 294 295 296 296 296 299 293 291 295 296 295 296 296 296 295 295 295 294 294 295 294 294 294 290 295 295 293
292 292 292 293 294 294 294 294 295 296 296 296 296 297 297 298 297 297 296 295 294 293 293 293 293 294 294 295 296 296 298 298 300 300 301 300 303 300 285 283 287 289 292 291 293 292 294 298 305 305 304 293 292 292 292 292 292 292 291 291 290 290 290 290 291 295 296 296 296 295 295 295 295 295 294 294 294 294 293 293 293 293 294 293 291
Wind_Speed
9 9 9 10 10 9 8 8 9 10 9 10 10 9 7 7 10 10 9 7 7 7 6 6 6 5 4 5 4 5 3 4 3 3 2 4 2 2 2 3 2 2 2 2 2 3 2 2 3 3 2 2 2 4 2 2 4 5 3 3 5 4 4 3 4 4 5 5 4 4 3 2 2 2 1 2 2 2 1 2 2 2 1 1 2
10 10 9 10 10 10 9 8 9 11 10 9 9 11 9 8 7 10 8 8 8 8 7 7 6 5 5 5 4 5 5 4 4 4 4 4 4 3 2 3 3 3 2 3 2 2 1 1 1 1 2 3 2 3 2 3 3 3 3 4 4 4 4 4 4 5 6 5 7 6 5 4 3 3 2 2 1 2 1 1 2 1 3 2 2
8 9 10 10 11 11 10 9 9 10 10 9 10 10 10 9 9 9 9 9 8 8 7 7 6 5 4 5 5 5 4 3 4 5 5 5 4 3 3 3 3 3 4 4 3 2 2 2 1 1 2 2 3 3 3 3 3 4 5 4 4 3 3 4 5 6 4 5 4 4 6 7 6 5 3 3 2 2 1 2 2 3 3 3 3
10 10 10 10 11 11 10 10 9 10 10 10 11 12 11 11 11 10 9 9 9 9 8 7 6 6 4 6 4 4 5 5 6 5 5 5 5 3 3 2 2 2 3 3 2 3 2 2 3 3 2 2 2 3 3 4 4 4 4 4 4 5 4 4 5 4 4 5 5 5 4 4 3 6 5 4 3 3 2 3 2 3 4 4 3
10 11 11 11 11 12 12 11 10 10 10 11 10 11 9 11 10 10 9 10 9 10 9 8 8 8 6 7 7 7 6 5 5 5 4 4 3 3 3 1 2 3 3 3 3 3 1 1 1 1 2 3 3 3 3 4 4 4 5 5 6 4 4 5 5 4 4 4 4 3 3 5 4 5 7 5 2 4 4 5 3 2 3 2 3
11 11 12 12 11 11 12 12 12 11 10 10 10 11 10 10 11 11 9 10 10 11 10 9 9 8 8 8 7 6 6 5 5 5 5 4 4 3 3 2 2 3 2 2 3 3 3 2 1 1 1 1 1 2 3 4 4 4 5 5 6 4 4 4 5 4 4 5 5 2 3 2 1 7 6 5 4 4 3 4 5 5 4 4 5
10 10 11 12 12 12 12 12 12 12 11 10 11 12 12 10 11 12 11 9 9 11 11 9 9 8 8 8 7 6 6 5 4 5 4 4 4 3 4 2 2 3 2 2 3 3 3 3 2 0 1 1 1 2 2 3 4 5 5 5 4 5 5 5 5 4 4 4 5 4 3 3 3 7 5 7 7 5 5 4 5 6 7 7 7
10 11 12 12 12 12 12 12 11 11 11 11 11 11 12 12 12 12 10 9 10 10 11 9 8 8 8 6 6 6 6 6 6 5 4 4 5 4 4 4 2 3 3 2 2 3 3 2 2 2 1 1 1 2 2 2 2 3 3 3 3 4 5 4 5 5 5 4 4 4 4 3 4 3 3 6 5 7 6 6 6 7 7 7 7
10 11 11 12 13 13 12 12 12 11 10 10 10 9 10 10 10 10 10 9 10 11 10 9 8 8 7 6 6 6 6 6 5 5 5 5 6 4 3 4 3 2 1 3 2 3 2 2 2 2 1 1 1 2 2 3 3 3 4 3 4 4 5 5 7 5 5 4 5 5 5 4 5 4 3 2 6 7 7 7 7 6 7 7 6
10 10 10 11 11 12 12 11 11 10 8 8 7 8 9 9 9 10 10 8 10 11 10 9 9 8 6 7 8 7 6 6 5 6 6 6 7 6 5 4 4 3 2 2 2 3 3 2 2 2 2 2 2 3 3 3 2 3 3 4 4 5 3 3 4 4 4 4 4 4 4 4 5 4 5 5 6 5 6 8 8 7 6 6 5
9 9 10 11 11 11 11 10 10 8 6 6 6 6 7 8 9 10 9 8 10 10 10 9 9 7 6 8 8 9 9 7 7 6 6 6 6 6 5 4 2 3 2 3 2 3 2 3 2 3 3 3 3 2 2 2 2 2 2 3 4 4 4 4 4 4 3 4 5 4 4 5 5 5 6 5 4 5 7 7 7 6 7 7 5
9 9 10 11 10 11 9 9 8 6 5 4 3 4 5 6 7 10 10 10 11 11 10 9 8 7 7 8 8 9 9 7 8 7 7 7 7 6 5 4 3 3 3 3 3 2 2 3 2 3 4 3 3 3 3 2 2 2 2 2 3 4 4 4 4 5 4 4 4 2 2 2 2 3 4 4 5 4 5 6 6 7 7 7 7
8 8 8 9 9 10 9 7 8 10 11 13 13 10 8 6 4 6 8 10 11 11 10 9 8 7 7 7 7 7 7 8 8 7 7 6 6 6 5 4 3 4 3 4 4 3 2 3 2 3 4 4 3 3 4 4 3 2 3 3 3 3 3 4 5 5 5 5 4 4 4 4 4 2 3 3 3 4 5 5 6 6 6 6 7
7 8 8 8 9 10 9 10 11 11 12 13 11 9 11 12 15 13 10 4 4 6 8 8 6 5 6 6 6 6 6 6 6 7 7 6 6 6 6 5 4 4 4 4 4 3 4 4 4 5 5 5 5 4 4 4 2 3 4 4 5 4 4 5 5 5 4 4 4 3 3 3 4 3 3 3 4 4 5 5 5 5 5 5 5
6 6 6 7 8 8 10 9 8 9 9 10 11 13 14 13 11 8 6 12 10 6 8 9 7 6 7 7 7 6 6 6 5 6 6 6 5 5 5 5 5 5 5 4 3 4 5 5 5 5 5 5 4 4 4 4 2 4 4 4 4 4 5 5 5 6 4 4 4 4 4 4 3 3 2 2 3 2 3 4 4 6 5 4 4
6 6 6 7 9 10 8 8 9 8 8 9 12 12 12 12 12 9 8 9 7 5 8 10 11 9 8 7 6 5 5 5 6 6 5 5 5 5 6 5 5 5 5 5 4 4 6 6 6 6 5 5 4 4 3 4 3 3 4 4 4 3 4 4 4 4 4 5 4 4 4 5 4 4 3 3 3 2 3 4 4 4 6 6 4
7 6 7 8 8 8 7 7 7 8 8 11 13 12 13 11 11 8 9 8 10 12 12 8 3 6 9 9 7 6 7 7 6 7 7 7 6 5 5 5 6 6 6 5 5 5 6 6 6 6 6 5 4 4 3 4 3 3 4 4 4 3 3 4 3 4 4 4 4 4 5 5 5 4 5 4 4 2 3 3 3 3 2 4 5
8 8 9 9 9 10 10 9 8 7 8 11 13 11 11 12 12 8 6 11 11 10 8 8 7 5 6 9 9 7 7 7 7 8 6 5 6 6 6 6 6 6 6 5 6 6 7 7 6 6 6 6 5 4 4 4 3 4 4 4 4 4 4 4 4 4 4 4 5 5 5 5 5 5 5 4 4 3 3 3 2 2 2 1 3
9 9 8 8 7 7 7 8 10 7 6 7 9 10 10 10 9 7 9 16 13 8 9 7 7 6 6 7 8 7 6 6 6 8 8 7 7 6 7 6 6 7 7 6 6 6 6 7 6 6 6 6 6 6 5 4 4 5 5 5 4 4 4 4 4 4 4 4 5 5 5 5 4 5 4 4 4 4 4 4 4 3 4 3 2
7 7 7 8 8 8 7 6 9 8 5 6 7 8 11 10 9 9 14 17 15 10 9 9 8 6 5 6 8 8 7 7 7 7 7 7 7 7 8 7 7 7 7 7 6 7 7 7 6 6 7 7 7 6 6 6 5 5 5 5 5 6 6 6 6 5 4 5 5 5 5 5 4 4 4 4 4 4 4 5 5 5 5 3 2
6 7 8 9 9 9 9 9 9 9 7 6 7 8 9 9 10 12 12 11 10 8 8 7 7 7 8 9 9 8 7 6 6 6 7 7 7 7 7 6 7 6 7 7 7 7 7 7 8 7 7 6 7 6 5 5 5 5 5 6 6 6 6 6 6 5 5 5 5 6 5 4 2 3 4 3 4 4 3 3 4 4 4 3 2
9 9 10 10 10 9 9 8 7 8 9 9 9 10 9 8 8 8 8 7 6 6 6 6 5 5 7 8 8 6 6 5 7 6 6 7 7 7 7 6 6 6 7 7 8 7 6 7 7 7 7 7 6 6 5 5 5 5 5 3 4 5 5 6 4 5 4 3 3 4 5 4 3 3 3 5 5 4 4 4 3 3 4 3 3
9 10 10 10 10 10 10 10 10 8 9 10 10 9 9 8 7 6 5 4 4 3 4 3 3 3 5 6 7 6 6 6 6 6 6 7 7 7 7 7 6 5 6 6 7 8 8 8 7 7 7 7 7 7 5 5 5 5 5 4 3 3 4 4 4 4 4 4 3 3 3 3 2 3 2 3 2 2 2 4 3 3 4 3 3
10 9 9 9 9 8 8 8 9 8 9 8 8 9 8 6 4 4 3 3 4 4 3 3 3 3 4 5 5 5 5 5 6 5 6 7 7 7 7 7 7 6 6 5 6 8 8 8 8 8 7 7 7 6 6 6 6 6 5 6 5 3 3 3 3 4 4 4 3 3 3 2 2 3 2 3 2 2 1 4 4 4 4 4 3
10 10 10 11 12 11 9 9 9 8 8 8 9 8 6 5 3 4 4 3 3 3 3 3 4 4 4 4 4 4 4 5 5 5 7 7 8 8 7 8 8 8 7 7 6 7 8 8 7 9 8 8 7 7 7 6 5 5 5 5 5 5 4 3 2 2 2 2 3 3 3 3 2 2 3 3 2 2 2 3 2 3 3 3 2
11 11 12 12 11 11 11 9 8 8 8 9 8 7 6 5 5 3 5 5 4 3 2 2 3 4 4 4 4 4 5 5 6 6 7 7 7 8 8 7 8 8 9 8 8 7 7 8 8 8 9 9 8 7 7 7 7 6 5 5 4 5 5 4 5 4 4 3 3 2 3 3 3 3 3 2 1 3 1 2 2 1 3 3 2
11 12 11 12 12 12 12 11 10 9 8 7 7 8 7 6 7 7 6 6 5 4 4 3 2 1 2 4 4 5 5 5 6 7 6 7 7 8 8 8 8 8 9 8 8 8 7 8 9 9 9 9 9 8 7 7 7 6 6 5 5 4 4 3 4 5 5 5 5 5 4 4 4 2 1 2 3 3 2 3 2 1 1 3 3
11 12 13 13 12 12 12 12 11 9 9 8 7 7 7 7 7 7 7 6 5 4 4 4 3 1 1 1 2 2 3 5 5 6 7 7 7 7 8 8 8 8 9 9 10 9 9 8 8 9 9 8 8 8 8 7 6 6 5 4 4 4 4 5 5 5 6 6 7 7 7 7 7 8 8 7 5 4 4 5 3 3 2 3 3
13 13 12 13 12 12 12 11 10 10 10 9 8 8 7 7 7 7 7 7 5 5 4 4 3 1 2 1 0 1 2 3 4 6 7 7 7 7 8 8 9 8 7 9 10 11 11 10 9 9 8 7 6 6 6 7 7 6 4 4 3 3 4 4 5 5 6 6 6 6 7 8 8 5 3 3 4 5 4 4 4 3 3 3 3
13 13 13 12 13 12 12 12 11 11 10 9 9 9 9 8 8 7 6 6 5 5 5 4 3 3 2 2 1 1 2 3 4 5 5 6 7 7 8 9 9 9 8 8 9 10 10 10 10 9 8 7 6 5 5 6 3 4 4 3 3 4 5 5 5 5 5 5 6 6 6 8 6 7 7 6 5 3 5 4 1 4 6 4 3
13 13 13 13 13 13 12 12 12 11 10 10 9 10 10 10 8 8 8 6 5 5 4 4 3 3 2 1 1 1 1 3 3 4 4 5 6 6 7 8 8 8 8 7 8 9 9 9 9 9 9 7 6 5 10 11 9 5 3 2 2 3 3 4 5 4 4 5 6 7 6 8 7 7 7 9 7 5 4 2 5 8 6 3 3
12 12 12 13 13 13 12 12 11 11 11 10 9 9 9 9 8 8 7 7 6 5 4 4 3 2 3 2 2 1 2 2 3 3 4 5 5 5 6 7 7 8 7 7 8 9 9 9 8 9 8 8 7 10 12 11 12 11 7 4 3 2 2 4 5 5 6 5 4 6 4 4 5 6 6 7 7 5 4 5 6 6 7 7 6
12 12 12 12 12 12 12 12 11 11 11 11 10 9 9 8 7 7 6 6 6 5 5 5 4 4 3 2 1 1 2 2 3 4 4 4 6 6 6 7 8 8 7 9 10 10 10 10 10 11 10 8 7 12 15 12 11 12 11 7 4 4 4 3 5 5 3 5 9 4 3 3 3 9 6 6 6 6 7 8 9 9 9 9 9
11 10 10 10 10 10 11 11 11 11 11 10 10 9 7 7 7 6 6 5 5 5 5 5 5 5 4 3 2 1 2 2 3 4 4 5 6 6 5 6 6 7 9 9 10 11 11 11 11 11 11 9 9 12 13 12 11 11 11 7 4 4 2 3 5 5 7 8 4 3 4 4 4 6 5 6 6 7 8 7 7 6 5 6 6
9 9 9 9 9 10 10 11 11 11 10 10 11 10 8 8 7 7 6 5 5 5 5 5 5 5 5 4 4 2 2 2 3 3 4 6 6 6 6 6 6 6 7 7 9 10 9 10 10 10 10 9 8 12 14 10 9 11 10 7 5 4 1 4 7 4 4 4 3 3 3 2 4 5 4 6 7 8 8 8 8 7 6 6 4
7 6 7 9 9 9 9 9 8 9 9 9 9 9 9 8 7 6 5 5 5 4 4 4 4 4 5 4 4 4 4 4 3 3 4 5 7 7 8 7 6 7 7 7 7 7 8 9 9 8 9 9 5 11 12 11 10 10 11 5 6 5 5 5 4 4 4 3 3 3 3 4 4 5 7 8 8 8 9 9 9 8 7 5 5
6 6 7 8 8 9 9 6 7 9 9 10 9 9 9 8 8 7 7 6 5 4 4 4 4 4 5 4 4 4 4 5 5 5 5 4 5 6 6 6 6 7 7 8 8 8 7 7 7 7 8 8 6 6 7 9 10 11 9 8 8 6 6 7 5 4 4 4 3 1 4 4 6 6 7 7 9 10 9 9 8 7 6 5 5
7 7 8 9 9 9 10 9 10 10 11 10 10 10 9 8 8 8 8 7 6 6 7 7 7 7 6 5 5 5 5 4 5 6 6 5 5 5 5 5 5 5 6 7 7 7 7 6 7 7 8 8 6 8 10 9 11 15 12 8 8 8 8 7 6 5 5 5 7 12 7 5 7 7 7 8 7 8 7 7 7 7 6 5 5
9 10 11 10 10 10 10 10 9 10 10 9 10 9 9 8 8 8 8 8 7 7 8 8 8 7 7 7 7 6 6 6 6 6 6 7 7 6 5 5 5 5 5 5 6 6 6 6 6 8 3 7 6 7 9 10 11 14 10 6 6 7 7 7 7 7 6 6 6 8 13 9 8 9 7 5 4 5 5 5 6 5 4 4 4
8 9 9 9 9 9 9 10 10 10 10 10 9 8 8 8 7 8 8 7 7 8 9 8 8 8 7 7 6 7 7 7 7 6 6 6 7 6 6 6 6 6 5 6 5 5 6 6 6 8 7 8 7 7 8 10 11 10 8 3 7 7 7 8 7 8 7 7 7 7 8 10 11 9 9 9 8 10 1 5 4 5 5 4 3
8 8 8 8 8 7 8 8 8 8 9 8 8 8 8 8 7 8 8 8 7 8 8 9 9 9 8 8 7 7 7 8 7 7 6 6 6 7 6 7 7 6 5 6 6 6 6 6 7 8 9 8 6 7 6 9 9 8 4 5 6 6 7 7 7 7 7 7 7 7 7 7 10 11 10 10 10 11 10 3 3 5 6 7 3
7 6 7 8 7 7 7 8 7 8 8 7 7 8 8 8 9 9 9 9 8 8 8 9 9 10 10 9 9 8 7 7 7 7 6 6 6 6 6 7 7 6 7 7 8 8 8 7 7 7 7 6 6 6 9 6 7 7 6 4 2 8 6 8 7 7 7 7 7 7 7 7 9 11 11 11 11 11 10 7 8 8 7 6 1
8 7 7 7 7 6 7 7 7 7 6 7 7 8 8 8 8 10 9 9 9 9 10 9 9 10 10 10 10 10 8 6 7 7 7 7 6 6 7 8 8 8 8 9 10 9 9 9 8 7 7 6 7 6 7 8 6 6 3 3 4 7 3 6 7 7 7 8 8 9 8 9 10 10 11 11 11 11 9 8 8 8 6 1 5
7 7 7 8 7 7 8 7 7 7 7 7 7 8 8 9 10 9 9 9 9 10 10 10 10 10 10 10 11 10 9 8 8 8 8 8 7 6 7 8 9 9 9 10 9 9 10 10 9 7 6 7 7 7 5 5 7 6 7 5 8 8 2 2 6 6 7 8 9 9 10 11 11 11 11 10 10 10 8 8 6 5 4 5 4
8 8 7 8 8 9 9 9 8 8 8 7 7 8 10 11 10 9 10 10 10 11 10 11 11 11 11 10 10 10 10 10 9 9 9 9 9 7 7 8 9 10 9 9 9 10 10 9 8 8 7 7 7 7 7 6 6 6 7 9 10 9 7 5 7 7 7 7 13 17 15 12 13 13 14 13 11 10 8 6 6 6 6 5 2
7 8 9 9 9 8 8 9 9 9 8 7 7 7 10 10 10 10 10 10 11 11 11 11 11 11 11 12 12 12 12 12 11 10 9 9 9 8 8 9 8 8 8 9 10 10 10 10 9 9 8 7 7 7 7 7 6 8 7 8 9 11 12 14 14 12 16 18 17 15 14 14 13 12 8 6 6 6 7 8 7 7 6 1 1
8 8 9 9 8 8 9 9 10 9 8 8 10 9 9 10 10 11 11 11 11 11 11 11 12 12 12 13 13 12 11 11 12 11 10 9 9 9 8 9 9 9 6 3 2 5 9 11 10 9 9 8 8 8 8 7 7 7 7 8 8 9 13 14 11 10 12 11 12 11 8 7 8 7 9 10 8 8 8 7 6 4 1 0 0
8 8 9 8 8 9 9 10 9 10 11 10 10 11 12 12 12 12 12 13 13 13 13 12 12 12 12 12 12 12 12 11 11 11 11 11 10 10 11 10 10 11 11 9 6 4 5 6 8 7 8 8 8 8 9 9 9 8 8 9 9 9 9 9 10 10 10 11 10 9 9 7 7 6 7 6 7 5 3 1 1 1 1 2 1
9 9 8 8 8 9 9 9 10 10 10 10 11 11 12 12 12 12 12 13 13 14 14 15 14 13 11 11 12 12 12 12 12 13 13 13 12 11 12 11 10 10 10 9 8 7 6 2 6 1 7 8 8 9 9 8 10 11 10 11 10 10 9 9 10 13 12 10 9 9 6 7 6 5 4 3 4 3 1 2 1 1 1 2 1
9 8 8 8 8 9 10 10 9 9 10 11 11 12 12 13 13 13 13 13 13 13 14 14 13 12 13 12 11 11 12 12 12 12 12 9 7 4 3 4 5 8 6 9 12 10 7 4 3 6 6 4 5 5 10 13 11 12 11 12 11 11 10 11 15 15 12 9 7 6 5 5 4 3 3 2 2 2 2 2 2 1 2 1 2
9 9 8 8 9 9 10 10 10 10 11 12 12 13 14 14 14 13 13 13 13 13 12 13 12 13 12 12 13 12 11 11 11 12 12 13 9 2 2 2 3 6 5 4 6 7 10 15 9 9 7 1 3 5 13 13 13 11 10 12 13 15 18 19 17 10 7 6 6 5 4 4 3 3 2 2 2 2 2 2 1 1 0 0 1
Wind_Direction
169 177 177 182 180 180 186 186 186 193 193 186 179 187 169 189 172 176 178 149 151 154 154 152 162 161 166 168 148 142 137 130 124 112 106 78 63 104 117 127 137 134 151 142 143 143 162 165 187 195 173 197 207 255 208 186 193 223 190 207 207 206 178 170 165 177 158 156 157 163 159 152 124 127 119 128 112 136 152 175 153 177 151 148 104
164 169 175 185 183 178 185 191 188 189 185 183 182 180 169 190 188 165 158 163 161 160 153 165 172 174 168 154 142 137 140 153 130 124 105 107 105 88 108 119 118 118 113 116 104 112 122 153 211 167 171 192 184 198 184 165 178 188 191 195 221 214 192 187 178 195 185 185 166 158 158 146 125 126 129 84 97 113 130 131 121 148 131 104 112
160 169 179 180 185 180 185 191 194 194 177 180 182 187 168 177 194 184 164 171 164 160 164 170 170 156 164 134 149 131 105 92 105 100 116 113 103 99 93 100 124 120 116 116 122 140 152 160 177 151 173 159 182 178 173 173 187 181 189 205 195 216 208 187 194 209 223 175 187 178 170 185 148 155 114 94 111 99 111 123 130 133 102 113 94
179 182 181 180 184 186 189 192 196 191 180 183 193 186 177 189 177 185 165 174 163 165 176 162 148 137 132 133 117 128 121 109 106 114 107 116 116 111 95 109 102 105 106 127 121 119 166 166 163 169 159 176 192 180 172 177 180 181 185 198 212 192 190 197 208 204 281 170 192 210 187 152 158 178 141 113 116 116 130 114 111 96 109 96 105
185 180 183 181 184 192 192 192 192 190 184 189 191 189 185 185 176 179 173 170 166 161 170 153 147 153 134 122 115 110 124 134 139 128 123 112 119 130 112 125 131 111 110 108 102 91 66 64 65 134 165 170 190 169 167 163 171 185 182 198 203 220 192 191 199 212 241 266 306 209 156 190 187 157 133 111 132 120 97 87 69 96 84 78 82
189 187 188 185 187 190 195 194 193 190 192 194 187 193 188 183 180 180 179 172 165 165 165 161 167 157 152 153 154 156 146 154 147 140 146 149 111 102 123 123 113 104 107 86 88 109 111 97 94 257 182 185 181 170 160 152 162 180 192 201 204 199 192 190 188 191 228 234 249 351 303 349 232 150 179 131 109 83 89 102 106 70 68 76 61
193 192 188 190 189 190 194 197 194 192 195 195 190 195 187 188 183 183 182 172 168 166 166 173 165 161 162 161 155 151 142 133 120 132 131 119 119 128 110 131 134 130 101 88 94 94 98 109 120 160 116 163 199 214 184 183 179 179 173 206 179 160 198 204 181 174 188 221 231 247 284 202 235 162 192 134 140 125 95 96 80 75 66 64 67
187 191 193 193 194 195 191 195 198 198 188 186 193 194 187 185 187 184 178 174 171 167 169 176 162 165 167 160 147 146 144 135 140 128 119 122 121 129 131 134 151 130 122 100 99 98 92 106 116 110 123 131 184 184 181 176 171 133 151 180 181 174 177 209 193 187 201 172 204 214 218 227 211 225 227 178 153 149 134 92 86 83 81 74 73
188 186 190 190 193 195 191 197 197 195 186 187 185 182 182 184 180 176 169 166 170 167 171 168 164 167 168 153 149 133 132 136 140 137 133 128 128 129 121 117 122 93 81 109 102 85 93 90 103 135 116 98 113 103 102 86 90 123 148 174 170 198 212 194 190 199 204 169 184 190 200 189 176 190 207 237 146 146 133 121 102 90 94 83 76
188 187 183 187 191 191 189 192 189 185 179 169 171 172 180 182 173 163 155 153 161 165 168 162 162 166 169 156 142 131 133 136 143 142 141 145 133 136 137 142 130 138 127 106 101 99 77 80 112 111 107 101 84 80 88 88 96 132 152 165 165 169 187 214 198 177 197 156 214 173 188 164 169 165 184 196 166 160 139 142 140 147 119 94 95
183 180 177 182 184 184 183 182 174 163 148 151 158 176 178 174 164 159 145 141 154 163 166 157 157 168 161 150 149 138 142 144 143 153 149 149 139 140 142 126 130 114 132 123 99 92 79 55 75 100 101 93 92 101 70 75 109 121 130 148 160 169 176 177 184 173 176 174 205 189 179 181 172 174 179 190 175 160 141 144 155 130 115 115 97
182 178 172 170 169 181 175 173 168 144 131 142 162 179 188 188 169 151 133 135 152 162 160 151 153 157 149 153 154 144 146 151 152 154 158 148 144 141 132 135 131 123 136 124 112 78 78 77 90 115 103 92 82 63 68 79 70 88 128 147 139 149 145 163 161 159 177 169 194 179 220 190 200 206 176 187 188 166 158 153 139 133 131 117 123
179 173 165 162 160 174 171 153 107 70 57 36 13 14 18 16 83 103 123 140 150 158 154 147 143 143 143 152 155 149 153 152 151 152 153 150 149 142 142 136 138 141 134 122 99 92 93 105 96 110 109 90 68 64 72 55 49 79 95 103 116 125 134 144 156 160 168 160 183 168 192 159 144 124 151 160 145 140 152 163 144 147 122 131 135
172 166 160 162 156 169 160 143 132 127 116 110 93 60 45 41 35 31 18 357 125 123 116 112 112 125 141 155 162 156 153 154 152 152 156 150 145 144 143 136 139 130 128 105 104 99 82 78 82 83 78 77 71 71 70 68 46 105 85 86 85 81 92 108 113 128 128 135 140 131 110 108 80 75 87 110 134 160 161 162 143 125 145 150 148
156 149 142 153 159 133 122 127 132 136 133 120 112 104 102 93 86 65 27 337 346 91 113 127 135 145 163 172 173 160 157 157 157 148 151 144 136 140 127 136 136 137 124 109 104 96 100 95 88 85 81 78 80 82 93 94 66 104 84 75 74 84 88 95 99 106 108 95 72 79 95 90 87 91 86 97 141 148 154 155 169 146 156 148 141
118 122 133 131 130 132 155 154 143 138 104 96 102 113 118 126 129 144 185 190 217 205 155 164 172 169 161 150 163 161 149 158 152 147 142 141 143 140 126 133 134 130 118 120 114 111 107 109 102 92 88 86 84 86 91 92 81 85 89 85 86 81 91 95 106 97 84 84 88 92 98 89 90 93 103 73 67 94 119 145 172 167 157 150 156
114 128 135 138 139 126 108 101 103 106 108 105 115 127 130 129 126 163 219 191 198 201 186 185 157 141 149 157 162 156 155 166 153 151 152 148 144 132 129 132 135 137 129 126 125 118 114 105 103 99 94 92 92 89 89 89 86 85 88 92 85 75 72 69 63 83 88 91 90 87 91 97 84 75 78 91 93 116 127 157 192 182 192 146 164
124 125 115 111 109 102 97 82 71 83 98 113 123 142 138 135 140 149 258 255 210 201 190 192 193 177 154 159 161 164 164 163 158 147 139 152 142 135 135 146 155 142 140 139 134 129 121 119 112 108 102 102 102 104 100 102 109 98 99 99 84 88 94 92 91 93 91 98 105 103 101 96 87 91 86 85 95 99 122 138 140 119 245 166 154
100 101 104 96 80 74 81 96 90 60 77 103 136 154 138 128 129 148 204 253 244 200 196 193 185 178 174 169 163 167 163 157 156 149 159 159 149 146 146 156 155 153 151 150 149 139 133 125 122 118 115 111 110 109 117 114 114 112 118 112 114 113 104 101 94 94 104 108 106 105 106 100 100 98 106 102 104 112 108 103 82 67 61 49 93
111 106 98 86 82 82 90 98 96 94 81 110 141 152 137 137 157 190 219 217 222 210 201 200 194 180 167 166 170 178 169 163 154 160 155 155 151 153 154 166 165 163 155 159 155 147 141 137 131 125 125 120 119 118 116 120 124 123 132 124 120 127 122 119 121 125 122 119 119 116 109 106 114 121 104 91 81 63 59 81 87 86 75 52 33
95 98 91 82 78 74 66 66 83 109 127 140 138 130 137 149 180 205 224 210 203 206 204 203 190 190 170 173 176 179 163 156 153 162 151 152 150 156 163 169 167 169 158 161 157 154 149 145 141 141 134 130 123 122 121 122 120 122 116 121 137 135 132 127 125 129 131 142 131 120 119 115 116 106 113 122 105 99 96 81 84 93 85 62 58
96 98 94 90 87 88 93 97 97 102 112 115 116 121 127 151 169 214 213 210 185 190 192 192 185 189 177 176 180 172 165 160 151 156 153 150 151 162 161 168 173 171 168 162 157 153 153 152 148 142 141 135 133 123 131 124 120 119 116 121 135 138 123 119 137 130 119 112 132 131 126 124 123 116 152 144 136 148 141 134 115 93 93 82 20
88 93 94 92 96 98 96 99 98 91 93 102 109 111 122 137 162 187 189 180 168 163 156 177 178 179 174 181 180 176 177 160 154 156 154 155 155 158 167 164 178 173 180 172 157 161 160 155 151 150 147 146 143 139 136 137 132 138 133 129 126 120 126 135 143 137 139 120 130 125 130 129 143 144 165 79 114 156 134 91 95 95 98 97 88
88 90 94 99 97 101 104 94 91 88 83 85 90 94 96 108 133 138 138 137 139 137 151 167 166 161 172 179 181 166 167 167 171 173 162 162 162 162 173 174 172 179 183 179 168 172 166 163 158 156 154 155 151 150 152 152 148 143 148 145 149 146 151 158 154 158 145 153 150 156 143 153 165 158 162 136 168 121 144 114 131 122 122 106 90
92 89 84 80 78 74 78 90 81 79 85 84 84 80 84 104 124 115 108 112 105 118 151 157 159 161 167 182 171 170 173 179 194 201 188 172 166 164 173 181 176 176 183 180 184 182 175 170 166 164 158 159 159 159 156 154 148 160 156 154 164 161 162 171 166 148 145 187 166 189 161 161 183 182 170 196 145 195 176 142 154 137 126 109 125
90 79 73 70 72 80 78 81 89 89 88 90 93 101 116 119 101 95 109 110 105 101 111 142 155 171 172 183 187 191 194 198 209 218 202 189 177 173 171 183 184 182 176 183 186 186 186 175 175 169 162 161 160 159 162 163 159 165 168 170 174 171 181 183 177 197 190 196 214 205 182 189 192 204 200 190 172 202 199 206 169 220 112 111 97
87 80 80 80 76 75 79 78 76 83 93 91 89 101 97 95 100 100 85 79 77 91 108 106 85 145 199 200 205 211 213 222 219 217 203 197 191 183 180 184 186 186 178 178 185 185 188 186 178 170 169 166 161 163 159 159 163 164 166 165 170 174 178 185 191 197 200 202 209 207 202 197 201 194 15 261 234 225 224 242 178 188 193 138 188
88 87 84 81 79 77 76 72 71 74 78 88 88 80 81 75 76 71 70 70 70 71 84 87 95 105 197 204 223 232 237 229 229 216 208 207 200 200 202 192 189 191 192 188 181 187 184 190 176 175 169 165 162 163 161 162 165 158 160 168 173 186 194 190 200 211 208 210 211 211 207 203 202 202 204 211 198 243 231 224 191 211 197 186 215
89 87 87 85 83 78 77 78 80 78 73 68 68 67 63 66 64 62 59 54 53 56 61 72 78 63 53 16 73 64 260 235 227 225 214 208 209 213 219 213 204 202 202 202 194 187 185 186 176 174 165 163 168 164 162 163 162 164 170 179 191 208 223 225 222 221 219 222 225 220 218 217 211 207 193 257 348 344 245 222 204 207 217 223 236
88 87 86 84 83 83 80 77 73 72 73 74 70 66 60 54 52 51 55 52 63 55 54 44 44 47 37 35 18 184 225 229 226 224 223 225 226 223 219 216 213 212 206 210 205 197 192 185 176 172 163 161 170 174 131 98 85 145 171 186 192 226 239 246 249 253 243 233 234 230 218 215 193 172 174 205 238 283 313 332 249 195 235 235 239
83 83 82 80 79 77 78 77 76 73 72 71 69 67 62 57 53 53 51 49 53 54 62 55 52 43 20 3 348 304 229 223 223 225 217 226 226 221 220 220 219 218 212 205 205 194 192 190 187 173 169 170 175 176 154 160 157 166 183 184 229 237 247 246 251 249 248 252 238 229 229 175 170 159 189 197 212 202 231 330 29 51 35 351 262
72 72 75 75 72 68 65 65 65 67 67 65 63 64 62 58 52 52 53 53 57 59 60 57 51 45 33 16 4 336 276 262 245 237 237 239 237 233 231 232 230 226 217 213 210 209 206 207 211 203 189 183 186 142 174 180 173 169 183 183 201 232 246 264 264 257 251 258 267 250 214 179 202 199 220 186 179 169 162 127 97 81 68 60 47
62 57 54 55 60 61 55 52 54 50 51 51 56 60 56 53 57 49 58 61 60 57 62 64 66 72 71 44 323 296 288 254 240 244 240 246 238 231 233 230 232 234 234 231 226 222 224 220 219 223 221 201 188 161 182 189 174 171 174 178 182 204 213 224 244 246 281 273 247 224 202 192 135 124 201 195 172 142 104 102 107 97 68 56 45
54 51 50 46 42 43 43 39 41 41 42 45 41 38 49 49 44 49 44 44 56 61 56 54 49 49 46 50 35 356 306 285 271 256 242 233 235 225 223 229 235 235 234 235 233 230 231 231 229 232 231 222 222 173 185 194 178 170 165 175 172 175 204 260 251 229 226 235 245 235 230 195 157 177 197 186 158 150 149 147 155 163 140 105 90
49 40 38 42 42 39 33 36 31 26 26 27 26 20 22 34 35 35 31 26 23 33 42 35 35 27 25 15 356 3 332 328 304 281 260 247 235 225 219 221 223 228 231 234 236 233 231 229 229 229 231 214 212 155 189 198 166 161 158 177 148 122 139 241 248 247 242 234 226 217 237 211 158 174 156 151 152 156 159 163 167 163 157 162 130
42 34 43 42 42 53 47 23 24 35 27 26 22 2 8 14 21 25 15 20 13 10 25 20 12 19 12 7 351 340 325 303 284 269 257 248 242 239 231 220 231 233 227 226 227 229 227 225 224 223 228 223 178 162 174 175 161 153 152 151 153 151 186 217 211 208 196 181 179 176 168 150 143 134 95 131 159 161 161 162 161 155 142 114 81
67 53 45 40 34 37 46 46 37 30 27 21 14 8 3 3 5 6 3 1 359 0 10 9 359 6 2 352 347 333 325 303 295 285 273 264 249 237 236 233 229 230 229 224 229 229 227 223 217 215 208 210 158 136 161 165 164 164 173 170 166 159 161 186 179 157 142 99 77 83 141 136 133 121 122 143 157 172 157 162 160 156 149 145 135
42 33 34 35 29 22 28 23 22 25 21 12 5 2 357 358 359 354 350 346 355 360 359 356 352 347 337 335 331 325 317 310 286 275 272 268 258 247 242 225 231 228 224 223 221 223 224 222 214 212 204 204 164 159 171 176 175 180 209 171 164 167 167 156 144 128 110 93 56 21 1 124 119 126 134 139 162 187 162 161 160 156 166 167 145
30 23 15 17 16 13 10 14 14 16 11 3 359 355 355 350 351 347 342 337 343 348 344 344 339 336 331 326 319 318 313 310 305 294 284 268 253 248 244 231 227 226 218 214 209 208 208 207 209 208 159 206 177 143 166 178 189 193 226 168 171 151 155 149 141 129 116 110 93 56 32 45 89 110 114 98 14 304 163 161 159 182 185 186 146
22 23 10 3 4 1 5 7 5 3 357 352 349 348 345 338 338 334 325 326 334 334 328 324 323 322 319 314 309 306 305 300 299 304 299 284 267 249 232 230 228 226 203 202 198 205 192 197 183 198 183 204 157 153 157 172 188 201 243 239 162 159 151 148 148 137 130 115 108 99 70 61 84 85 76 60 41 6 112 149 180 204 222 205 141
17 15 1 358 359 359 356 357 355 351 348 346 342 337 329 325 319 315 314 315 318 315 315 315 312 308 306 308 310 306 306 302 294 294 295 286 272 259 239 229 228 228 210 193 188 180 166 161 163 175 171 166 163 149 151 173 183 191 205 252 161 160 153 154 145 145 143 139 131 112 105 72 84 85 83 72 58 38 18 77 45 57 47 47 358
14 7 3 358 346 348 346 347 345 341 340 337 335 327 318 318 312 304 308 310 306 307 307 305 300 300 302 302 301 302 303 297 292 284 281 277 265 253 251 238 234 223 197 181 183 180 171 162 151 159 154 131 86 107 152 175 184 183 201 348 271 159 162 155 153 153 143 137 127 125 119 92 89 89 85 81 71 63 57 78 72 77 55 32 336
355 351 6 353 336 338 342 335 335 335 334 328 323 312 307 305 300 305 308 308 308 301 296 294 295 295 294 292 291 290 289 288 287 280 273 272 267 248 239 243 240 229 212 200 185 181 174 169 164 158 144 140 139 116 130 152 161 169 153 52 4 117 66 166 158 150 138 128 121 111 102 101 100 97 92 91 94 97 90 90 98 85 85 43 273
348 345 351 342 333 337 334 334 331 336 331 328 319 313 313 310 305 311 310 304 296 291 289 285 280 279 279 280 280 280 278 276 276 275 266 261 257 251 241 232 230 228 218 210 201 184 180 169 167 154 146 149 151 140 105 129 152 153 133 110 100 100 2 202 154 145 133 128 131 128 124 123 110 101 89 76 65 67 92 109 106 128 176 238 259
342 341 350 340 337 333 331 332 337 335 333 328 327 318 318 310 312 316 310 307 303 299 289 281 276 272 270 270 271 272 273 271 269 267 265 257 247 237 240 231 227 227 223 216 206 193 190 178 168 154 158 155 153 144 139 97 102 122 124 120 111 102 82 88 129 131 122 102 95 107 121 122 115 107 106 103 95 99 113 123 154 192 222 232 236
338 341 349 337 333 331 330 333 333 335 330 324 312 304 301 304 305 303 301 301 301 300 297 290 284 276 272 268 264 264 264 262 261 260 259 258 255 237 227 225 216 223 224 218 211 204 199 182 171 172 168 161 153 149 139 132 137 123 110 102 107 95 77 61 66 84 91 105 113 117 117 120 124 133 145 139 130 130 154 173 196 224 233 205 301
341 342 338 333 334 330 333 332 333 329 319 312 309 310 308 304 303 299 296 294 293 292 292 291 286 282 273 266 262 260 257 254 253 250 248 246 244 240 230 217 204 205 201 211 243 225 213 199 192 172 166 163 166 160 153 152 154 145 137 132 117 102 103 103 104 113 112 110 123 130 124 105 92 75 71 92 119 148 178 194 197 203 125 119 132
338 333 337 328 328 328 327 329 325 317 316 325 321 317 314 313 311 308 305 300 295 293 291 290 289 289 287 282 274 260 256 257 255 252 250 246 238 235 233 220 215 211 205 198 195 243 268 236 198 165 161 164 168 164 163 165 162 152 150 154 147 145 152 149 136 136 134 131 129 112 120 135 139 149 157 173 175 184 185 181 183 139 149 100 118
332 336 332 327 327 322 318 320 320 324 323 316 317 316 315 313 310 306 303 298 293 290 286 286 287 282 277 279 277 273 264 256 250 248 245 245 242 234 233 228 224 223 217 197 176 199 215 99 353 285 174 170 171 170 173 175 165 162 161 162 161 163 159 155 140 132 133 140 143 154 158 161 169 175 175 178 164 170 152 130 143 239 178 195 217
332 328 324 321 321 322 324 323 320 321 319 318 315 313 311 310 308 305 299 293 288 285 282 280 281 282 281 274 269 273 266 259 256 251 251 236 42 5 338 296 252 43 59 170 175 203 207 130 165 267 282 163 190 184 150 150 151 162 170 158 158 156 141 127 126 141 147 149 163 164 164 167 164 171 177 171 175 169 172 171 141 96 252 31 351
325 321 321 325 325 323 319 319 317 316 313 312 309 308 308 307 306 301 298 293 288 284 279 276 275 274 277 282 278 271 276 275 261 250 245 246 228 155 38 25 334 325 353 55 152 122 141 161 172 201 232 25 35 114 146 146 140 139 125 115 111 109 115 127 140 151 159 157 158 163 162 164 170 171 175 159 151 173 175 179 154 165 200 182 237